This is the latest recevied weather packets stored in our database for station/object KO4DYK. If no packets are shown the sender has not sent any weather packets the latest 1 day(s).
| Time | Temp. | Humidity | Pressure | Rain* | Wind** | Luminosity | Snow |
|---|---|---|---|---|---|---|---|
| 1778016481 | 17.78° C | 99% | 1012.8 hPa | 0 mm | 3.58 m/s, 169° | 56 W/m² | - |
| 1778016179 | 17.78° C | 99% | 1012.8 hPa | 0 mm | 0.45 m/s, 138° | 56 W/m² | - |
| 1778015875 | 17.78° C | 99% | 1012.9 hPa | 0 mm | 2.24 m/s, 181° | 58 W/m² | - |
| 1778015573 | 17.78° C | 99% | 1012.9 hPa | 0 mm | 2.24 m/s, 197° | 62 W/m² | - |
| 1778015269 | 17.78° C | 99% | 1012.7 hPa | 0 mm | 0.89 m/s, 179° | 77 W/m² | - |
| 1778014966 | 17.78° C | 99% | 1012.8 hPa | 0 mm | 2.24 m/s, 211° | 97 W/m² | - |
| 1778014663 | 17.78° C | 99% | 1012.7 hPa | 0 mm | 2.24 m/s, 159° | 81 W/m² | - |
| 1778014362 | 17.78° C | 99% | 1012.8 hPa | 0 mm | 2.24 m/s, 200° | 78 W/m² | - |
| 1778014057 | 17.78° C | 99% | 1012.7 hPa | 1.27 mm | 4.02 m/s, 193° | 71 W/m² | - |
| 1778013756 | 17.78° C | 99% | 1012.8 hPa | 1.27 mm | 2.24 m/s, 176° | 63 W/m² | - |
| 1778013452 | 17.78° C | 99% | 1012.9 hPa | 0 mm | 2.24 m/s, 148° | 53 W/m² | - |
| 1778013149 | 17.78° C | 99% | 1012.8 hPa | 0 mm | 2.24 m/s, 161° | 54 W/m² | - |
| 1778012845 | 17.78° C | 99% | 1012.9 hPa | 0 mm | 1.79 m/s, 183° | 88 W/m² | - |
| 1778012541 | 17.78° C | 99% | 1012.9 hPa | 0 mm | 3.58 m/s, 181° | 95 W/m² | - |
| 1778012238 | 17.78° C | 99% | 1012.9 hPa | 0 mm | 2.68 m/s, 175° | 79 W/m² | - |
| 1778011936 | 17.78° C | 99% | 1013.1 hPa | 0 mm | 3.58 m/s, 207° | 112 W/m² | - |
| 1778011634 | 17.78° C | 99% | 1012.8 hPa | 0 mm | 4.47 m/s, 189° | 93 W/m² | - |
| 1778011331 | 17.78° C | 99% | 1013.2 hPa | 0 mm | 2.24 m/s, 175° | 49 W/m² | - |
| 1778011026 | 17.78° C | 99% | 1013.1 hPa | 1.78 mm | 1.34 m/s, 195° | 52 W/m² | - |
| 1778010724 | 17.78° C | 99% | 1013 hPa | 1.78 mm | 1.34 m/s, 191° | 46 W/m² | - |
| 1778010421 | 17.78° C | 99% | 1013.2 hPa | 0 mm | 1.34 m/s, 180° | 63 W/m² | - |
| 1778010117 | 17.78° C | 99% | 1013.1 hPa | 0 mm | 2.24 m/s, 188° | 68 W/m² | - |
| 1778009813 | 18.33° C | 99% | 1013 hPa | 0 mm | 3.58 m/s, 197° | 58 W/m² | - |
| 1778009511 | 18.33° C | 99% | 1013.2 hPa | 0 mm | 3.13 m/s, 185° | 63 W/m² | - |
| 1778009209 | 17.78° C | 99% | 1013.2 hPa | 0 mm | 1.34 m/s, 201° | 84 W/m² | - |
* Rain latest hour (hover to see other rain measurements)
** Current wind speed in m/s (hover to see current wind gust speed)